Time,TemperatureF,DewpointF,PressureIn,WindDirection,WindDirectionDegrees,WindSpeedMPH,WindSpeedGustMPH,Humidity,HourlyPrecipIn,Conditions,Clouds,dailyrainin,SoftwareType,DateUTC
2013-03-05 00:00:00,45.2,41.3,29.77,WNW,301,5.1,9.2,86,0.00,,,0.00,WeatherDisplay:10.37,2013-03-05 06:00:00,
2013-03-05 00:05:00,44.5,39.7,29.78,NW,309,12.0,17.3,83,0.00,CLR,,0.00,WeatherDisplay:10.37,2013-03-05 06:05:00,
2013-03-05 00:10:00,43.8,38.0,29.79,NW,307,6.2,12.7,80,0.00,CLR,,0.00,WeatherDisplay:10.37,2013-03-05 06:10:00,
2013-03-05 00:15:00,43.3,37.2,29.79,NW,314,8.3,11.5,79,0.00,CLR,,0.00,WeatherDisplay:10.37,2013-03-05 06:15:00,
2013-03-05 00:20:00,43.0,36.6,29.80,WNW,297,9.7,13.8,78,0.00,CLR,,0.00,WeatherDisplay:10.37,2013-03-05 06:20:00,
2013-03-05 00:25:00,42.6,35.9,29.80,NW,314,7.4,11.5,77,0.00,CLR,,0.00,WeatherDisplay:10.37,2013-03-05 06:25:00,
2013-03-05 00:30:00,42.3,35.3,29.80,NW,305,8.0,15.0,76,0.00,CLR,,0.00,WeatherDisplay:10.37,2013-03-05 06:30:00,
2013-03-05 00:35:00,42.0,35.0,29.81,NW,319,11.2,16.1,76,0.00,CLR,,0.00,WeatherDisplay:10.37,2013-03-05 06:35:00,
2013-03-05 00:40:00,41.9,34.9,29.81,NNW,339,8.7,15.0,76,0.00,CLR,,0.00,WeatherDisplay:10.37,2013-03-05 06:40:00,
2013-03-05 00:45:00,41.8,34.5,29.81,NW,307,9.6,16.1,75,0.00,CLR,,0.00,WeatherDisplay:10.37,2013-03-05 06:45:00,
2013-03-05 00:50:00,41.6,34.3,29.82,WNW,285,5.8,11.5,75,0.00,CLR,,0.00,WeatherDisplay:10.37,2013-03-05 06:50:00,
2013-03-05 00:55:00,41.6,34.3,29.82,NW,318,6.8,12.7,75,0.00,CLR,,0.00,WeatherDisplay:10.37,2013-03-05 06:55:00,
2013-03-05 01:00:00,41.5,34.2,29.83,NW,307,9.1,11.5,75,0.00,CLR,,0.00,WeatherDisplay:10.37,2013-03-05 07:00:00,
2013-03-05 01:05:00,41.4,34.1,29.84,NW,314,8.1,12.7,75,0.00,,,0.00,WeatherDisplay:10.37,2013-03-05 07:05:00,
2013-03-05 01:10:00,41.4,33.7,29.84,WNW,300,10.1,13.8,74,0.00,,,0.00,WeatherDisplay:10.37,2013-03-05 07:10:00,
2013-03-05 01:15:00,41.3,33.6,29.85,WNW,297,11.3,11.5,74,0.00,,,0.00,WeatherDisplay:10.37,2013-03-05 07:15:00,
2013-03-05 01:20:00,41.3,33.6,29.85,NW,324,6.6,9.2,74,0.00,,,0.00,WeatherDisplay:10.37,2013-03-05 07:20:00,
2013-03-05 01:25:00,41.3,33.3,29.85,NW,304,5.8,19.6,73,0.00,,,0.00,WeatherDisplay:10.37,2013-03-05 07:25:00,
2013-03-05 01:30:00,41.2,33.2,29.85,NW,322,11.2,13.8,73,0.00,,,0.00,WeatherDisplay:10.37,2013-03-05 07:30:00,
2013-03-05 01:35:00,41.1,32.8,29.85,NNW,342,9.3,13.8,72,0.00,,,0.00,WeatherDisplay:10.37,2013-03-05 07:35:00,
2013-03-05 01:40:00,41.0,32.7,29.85,WNW,301,7.5,11.5,72,0.00,,,0.00,WeatherDisplay:10.37,2013-03-05 07:40:00,
2013-03-05 01:45:00,40.8,32.5,29.86,NW,316,8.8,12.7,72,0.00,,,0.00,WeatherDisplay:10.37,2013-03-05 07:45:00,
2013-03-05 01:50:00,40.6,32.3,29.86,WNW,300,9.8,15.0,72,0.00,,,0.00,WeatherDisplay:10.37,2013-03-05 07:50:00,
2013-03-05 01:55:00,40.4,32.4,29.87,WNW,284,7.9,10.0,73,0.00,,,0.00,WeatherDisplay:10.37,2013-03-05 07:55:00,
2013-03-05 02:00:00,40.3,32.0,29.88,WNW,302,11.5,13.8,72,0.00,,,0.00,WeatherDisplay:10.37,2013-03-05 08:00:00,
2013-03-05 02:05:00,40.1,32.1,29.89,NW,305,9.4,13.8,73,0.00,,,0.00,WeatherDisplay:10.37,2013-03-05 08:05:00,
2013-03-05 02:11:00,40.0,31.7,29.89,NW,305,13.9,16.1,72,0.00,,,0.00,WeatherDisplay:10.37,2013-03-05 08:11:00,
2013-03-05 02:16:00,39.9,31.9,29.89,NNW,329,9.0,17.3,73,0.00,,,0.00,WeatherDisplay:10.37,2013-03-05 08:16:00,
2013-03-05 02:21:00,39.8,31.8,29.89,NW,322,9.9,9.9,73,0.00,,,0.00,WeatherDisplay:10.37,2013-03-05 08:21:00,
2013-03-05 02:26:00,39.7,32.1,29.89,WNW,301,7.9,15.0,74,0.00,,,0.00,WeatherDisplay:10.37,2013-03-05 08:26:00,
2013-03-05 02:31:00,39.6,31.7,29.88,WNW,291,9.2,11.5,73,0.00,,,0.00,WeatherDisplay:10.37,2013-03-05 08:31:00,
2013-03-05 02:36:00,39.5,31.6,29.89,WNW,300,9.6,13.8,73,0.00,,,0.00,WeatherDisplay:10.37,2013-03-05 08:36:00,
2013-03-05 02:41:00,39.5,31.9,29.89,NNW,335,6.1,9.2,74,0.00,,,0.00,WeatherDisplay:10.37,2013-03-05 08:41:00,
2013-03-05 02:46:00,39.4,31.8,29.88,NW,316,5.7,10.4,74,0.00,,,0.00,WeatherDisplay:10.37,2013-03-05 08:46:00,
2013-03-05 02:51:00,39.3,32.0,29.89,WNW,290,6.9,12.7,75,0.00,,,0.00,WeatherDisplay:10.37,2013-03-05 08:51:00,
2013-03-05 02:56:00,39.3,32.0,29.89,NW,305,7.7,11.5,75,0.00,,,0.00,WeatherDisplay:10.37,2013-03-05 08:56:00,
2013-03-05 03:01:00,39.2,31.9,29.89,NW,305,10.1,12.7,75,0.00,,,0.00,WeatherDisplay:10.37,2013-03-05 09:01:00,
2013-03-05 03:06:00,39.2,31.9,29.90,WNW,296,7.1,10.4,75,0.00,,,0.00,WeatherDisplay:10.37,2013-03-05 09:06:00,
2013-03-05 03:11:00,39.1,32.2,29.90,WNW,302,7.3,15.0,76,0.00,,,0.00,WeatherDisplay:10.37,2013-03-05 09:11:00,
2013-03-05 03:16:00,38.9,32.3,29.91,WNW,290,9.1,16.1,77,0.00,,,0.00,WeatherDisplay:10.37,2013-03-05 09:16:00,
2013-03-05 03:21:00,38.5,32.6,29.91,WNW,301,8.1,13.8,79,0.00,,,0.00,WeatherDisplay:10.37,2013-03-05 09:21:00,
2013-03-05 03:26:00,38.1,32.8,29.91,WNW,302,11.7,17.3,81,0.00,,,0.00,WeatherDisplay:10.37,2013-03-05 09:26:00,
2013-03-05 03:31:00,37.7,33.0,29.91,WNW,296,10.5,16.1,83,0.01,RA,,0.01,WeatherDisplay:10.37,2013-03-05 09:31:00,
2013-03-05 03:36:00,37.4,33.0,29.91,WNW,300,13.5,19.6,84,0.01,RA,,0.01,WeatherDisplay:10.37,2013-03-05 09:36:00,
2013-03-05 03:41:00,37.2,33.1,29.91,WNW,300,10.6,16.1,85,0.01,,,0.01,WeatherDisplay:10.37,2013-03-05 09:41:00,
2013-03-05 03:46:00,37.1,33.3,29.91,NW,316,10.7,19.0,86,0.01,,,0.01,WeatherDisplay:10.37,2013-03-05 09:46:00,
2013-03-05 03:51:00,36.9,33.4,29.91,NW,315,10.0,15.0,87,0.01,,,0.01,WeatherDisplay:10.37,2013-03-05 09:51:00,
2013-03-05 03:56:00,36.8,33.3,29.91,WNW,290,8.9,12.7,87,0.02,RA,,0.02,WeatherDisplay:10.37,2013-03-05 09:56:00,
2013-03-05 04:01:00,36.8,33.6,29.92,NW,305,8.9,19.6,88,0.02,RA,,0.02,WeatherDisplay:10.37,2013-03-05 10:01:00,
2013-03-05 04:06:00,36.7,33.5,29.92,West,281,13.0,17.3,88,0.02,,,0.02,WeatherDisplay:10.37,2013-03-05 10:06:00,
2013-03-05 04:11:00,36.5,33.6,29.92,WNW,300,8.5,12.7,89,0.02,,,0.02,WeatherDisplay:10.37,2013-03-05 10:11:00,
2013-03-05 04:16:00,36.3,33.6,29.93,WNW,296,11.7,16.0,90,0.02,,,0.02,WeatherDisplay:10.37,2013-03-05 10:16:00,
2013-03-05 04:21:00,36.1,33.5,29.93,WNW,302,9.8,15.0,90,0.02,,,0.02,WeatherDisplay:10.37,2013-03-05 10:21:00,
2013-03-05 04:26:00,36.0,33.6,29.94,WNW,283,9.5,13.8,91,0.02,,,0.02,WeatherDisplay:10.37,2013-03-05 10:26:00,
2013-03-05 04:31:00,36.0,33.6,29.94,North,350,11.3,18.4,91,0.01,,,0.02,WeatherDisplay:10.37,2013-03-05 10:31:00,
2013-03-05 04:36:00,36.0,33.6,29.95,WNW,285,10.0,17.3,91,0.01,,,0.02,WeatherDisplay:10.37,2013-03-05 10:36:00,
2013-03-05 04:41:00,36.0,33.9,29.96,WNW,300,9.6,16.0,92,0.01,,,0.02,WeatherDisplay:10.37,2013-03-05 10:41:00,
2013-03-05 04:46:00,35.9,33.8,29.96,West,274,8.6,12.7,92,0.02,RA,,0.03,WeatherDisplay:10.37,2013-03-05 10:46:00,
2013-03-05 04:51:00,35.8,33.7,29.96,WNW,294,11.1,19.6,92,0.02,RA,,0.03,WeatherDisplay:10.37,2013-03-05 10:51:00,
2013-03-05 04:56:00,35.7,33.6,29.97,WNW,297,12.7,18.4,92,0.01,,,0.03,WeatherDisplay:10.37,2013-03-05 10:56:00,
2013-03-05 05:01:00,35.5,33.4,29.97,WNW,289,10.9,17.3,92,0.01,,,0.03,WeatherDisplay:10.37,2013-03-05 11:01:00,
2013-03-05 05:06:00,35.3,33.2,29.97,NW,322,10.2,19.6,92,0.01,,,0.03,WeatherDisplay:10.37,2013-03-05 11:06:00,
2013-03-05 05:11:00,35.1,33.0,29.97,WNW,294,8.6,16.1,92,0.01,,,0.03,WeatherDisplay:10.37,2013-03-05 11:11:00,
2013-03-05 05:16:00,34.9,33.1,29.97,NW,316,7.1,11.5,93,0.02,RA,,0.04,WeatherDisplay:10.37,2013-03-05 11:16:00,
2013-03-05 05:21:00,34.8,33.0,29.97,WNW,302,6.2,10.4,93,0.02,RA,,0.04,WeatherDisplay:10.37,2013-03-05 11:21:00,
2013-03-05 05:26:00,34.7,32.9,29.96,WNW,294,9.4,11.5,93,0.02,,,0.04,WeatherDisplay:10.37,2013-03-05 11:26:00,
2013-03-05 05:31:00,34.6,32.8,29.96,NW,316,8.6,12.7,93,0.02,,,0.04,WeatherDisplay:10.37,2013-03-05 11:31:00,
2013-03-05 05:36:00,34.4,32.6,29.96,NW,311,7.7,10.4,93,0.02,,,0.04,WeatherDisplay:10.37,2013-03-05 11:36:00,
2013-03-05 05:41:00,34.4,32.9,29.96,WNW,290,7.1,8.1,94,0.03,RA,,0.05,WeatherDisplay:10.37,2013-03-05 11:41:00,
2013-03-05 05:46:00,34.4,32.9,29.96,NW,321,10.6,11.5,94,0.02,RA,,0.05,WeatherDisplay:10.37,2013-03-05 11:46:00,
2013-03-05 05:51:00,34.5,33.0,29.98,WNW,295,7.9,15.0,94,0.02,,,0.05,WeatherDisplay:10.37,2013-03-05 11:51:00,
2013-03-05 05:56:00,34.6,33.1,29.98,WNW,302,9.0,23.0,94,0.02,,,0.05,WeatherDisplay:10.37,2013-03-05 11:56:00,
2013-03-05 06:01:00,34.7,33.2,29.98,NNW,331,8.1,17.3,94,0.02,,,0.05,WeatherDisplay:10.37,2013-03-05 12:01:00,
2013-03-05 06:06:00,34.7,33.2,29.99,WNW,295,12.5,17.3,94,0.02,,,0.05,WeatherDisplay:10.37,2013-03-05 12:06:00,
2013-03-05 06:11:00,34.8,33.0,29.99,NW,314,10.1,11.5,93,0.02,CLR,,0.05,WeatherDisplay:10.37,2013-03-05 12:11:00,
2013-03-05 06:17:00,34.8,33.2,30.00,WNW,296,6.8,19.6,94,0.01,CLR,,0.05,WeatherDisplay:10.37,2013-03-05 12:17:00,
2013-03-05 06:22:00,34.8,33.2,30.01,NW,304,10.4,13.8,94,0.01,CLR,,0.05,WeatherDisplay:10.37,2013-03-05 12:22:00,
2013-03-05 06:27:00,34.8,33.0,29.99,NW,324,11.8,16.1,93,0.01,CLR,,0.05,WeatherDisplay:10.37,2013-03-05 12:27:00,
2013-03-05 06:32:00,34.8,32.7,30.00,WNW,300,9.2,12.7,92,0.01,CLR,,0.05,WeatherDisplay:10.37,2013-03-05 12:32:00,
2013-03-05 06:37:00,34.8,32.7,30.01,WNW,288,9.7,15.0,92,0.01,CLR,,0.05,WeatherDisplay:10.37,2013-03-05 12:37:00,
2013-03-05 06:42:00,34.8,32.4,30.01,NW,311,9.3,11.5,91,0.00,CLR,,0.05,WeatherDisplay:10.37,2013-03-05 12:42:00,
2013-03-05 06:47:00,34.7,32.3,30.01,WNW,291,7.2,11.5,91,0.00,CLR,,0.05,WeatherDisplay:10.37,2013-03-05 12:47:00,
2013-03-05 06:52:00,34.5,31.6,30.01,NNW,342,14.5,28.8,89,0.00,CLR,,0.05,WeatherDisplay:10.37,2013-03-05 12:52:00,
2013-03-05 06:57:00,34.3,31.4,30.01,NW,308,13.7,20.7,89,0.00,CLR,,0.05,WeatherDisplay:10.37,2013-03-05 12:57:00,
2013-03-05 07:02:00,34.2,31.3,30.02,WNW,287,7.5,11.5,89,0.00,CLR,,0.05,WeatherDisplay:10.37,2013-03-05 13:02:00,
2013-03-05 07:07:00,34.1,31.2,30.02,NW,322,15.9,21.9,89,0.00,CLR,,0.05,WeatherDisplay:10.37,2013-03-05 13:07:00,
2013-03-05 07:12:00,34.1,30.6,30.02,WNW,301,14.7,28.8,87,0.00,CLR,,0.05,WeatherDisplay:10.37,2013-03-05 13:12:00,
2013-03-05 07:17:00,34.0,30.5,30.02,NW,307,11.1,16.1,87,0.00,CLR,,0.05,WeatherDisplay:10.37,2013-03-05 13:17:00,
2013-03-05 07:22:00,34.0,30.8,30.02,WNW,298,8.8,12.7,88,0.00,CLR,,0.05,WeatherDisplay:10.37,2013-03-05 13:22:00,
2013-03-05 07:27:00,34.0,30.8,30.03,NW,307,6.4,11.5,88,0.00,CLR,,0.05,WeatherDisplay:10.37,2013-03-05 13:27:00,
2013-03-05 07:32:00,33.9,30.7,30.03,NW,311,7.4,11.5,88,0.00,CLR,,0.05,WeatherDisplay:10.37,2013-03-05 13:32:00,
2013-03-05 07:37:00,34.0,30.5,30.03,NW,322,5.2,9.2,87,0.00,CLR,,0.05,WeatherDisplay:10.37,2013-03-05 13:37:00,
2013-03-05 07:42:00,34.1,30.6,30.03,NW,324,10.1,16.1,87,0.00,CLR,,0.05,WeatherDisplay:10.37,2013-03-05 13:42:00,
2013-03-05 07:47:00,34.2,30.7,30.04,WNW,285,9.8,13.8,87,0.00,CLR,,0.05,WeatherDisplay:10.37,2013-03-05 13:47:00,
2013-03-05 07:52:00,34.3,30.8,30.04,NNW,340,5.5,9.0,87,0.00,CLR,,0.05,WeatherDisplay:10.37,2013-03-05 13:52:00,
2013-03-05 07:57:00,34.4,30.9,30.04,NNW,335,7.6,11.5,87,0.00,CLR,,0.05,WeatherDisplay:10.37,2013-03-05 13:57:00,
2013-03-05 08:02:00,34.7,31.2,30.04,WNW,287,6.7,10.4,87,0.00,CLR,,0.05,WeatherDisplay:10.37,2013-03-05 14:02:00,
2013-03-05 08:07:00,34.8,31.0,30.04,NNW,328,7.7,13.0,86,0.00,CLR,,0.05,WeatherDisplay:10.37,2013-03-05 14:07:00,
2013-03-05 08:12:00,34.7,30.7,30.05,NW,315,9.8,12.7,85,0.00,CLR,,0.05,WeatherDisplay:10.37,2013-03-05 14:12:00,
2013-03-05 08:17:00,34.7,30.7,30.05,West,281,9.7,13.8,85,0.00,CLR,,0.05,WeatherDisplay:10.37,2013-03-05 14:17:00,
2013-03-05 08:22:00,35.0,30.7,30.05,WNW,294,10.3,13.0,84,0.00,CLR,,0.05,WeatherDisplay:10.37,2013-03-05 14:22:00,
2013-03-05 08:27:00,35.1,30.5,30.06,NW,316,12.1,16.1,83,0.00,CLR,,0.05,WeatherDisplay:10.37,2013-03-05 14:27:00,
2013-03-05 08:32:00,35.2,30.3,30.06,NW,312,9.3,16.1,82,0.00,CLR,,0.05,WeatherDisplay:10.37,2013-03-05 14:32:00,
2013-03-05 08:37:00,35.2,29.3,30.06,NW,309,14.4,24.2,79,0.00,CLR,,0.05,WeatherDisplay:10.37,2013-03-05 14:37:00,
2013-03-05 08:42:00,35.2,30.0,30.06,NW,307,12.3,18.4,81,0.00,CLR,,0.05,WeatherDisplay:10.37,2013-03-05 14:42:00,
2013-03-05 08:47:00,35.3,29.4,30.06,NW,312,6.5,9.2,79,0.00,CLR,,0.05,WeatherDisplay:10.37,2013-03-05 14:47:00,
2013-03-05 08:52:00,35.3,28.8,30.06,NW,312,12.2,18.4,77,0.00,CLR,,0.05,WeatherDisplay:10.37,2013-03-05 14:52:00,
2013-03-05 08:57:00,35.7,26.2,30.07,WNW,293,11.4,15.0,68,0.00,CLR,,0.05,WeatherDisplay:10.37,2013-03-05 14:57:00,
2013-03-05 09:02:00,35.8,25.5,30.07,NW,324,11.1,19.6,66,0.00,CLR,,0.05,WeatherDisplay:10.37,2013-03-05 15:02:00,
2013-03-05 09:07:00,35.8,26.3,30.07,WNW,301,7.9,18.4,68,0.00,CLR,,0.05,WeatherDisplay:10.37,2013-03-05 15:07:00,
2013-03-05 09:12:00,35.5,26.3,30.07,West,279,14.4,21.9,69,0.00,CLR,,0.05,WeatherDisplay:10.37,2013-03-05 15:12:00,
2013-03-05 09:17:00,35.3,26.5,30.07,WNW,283,11.5,19.6,70,0.00,CLR,,0.05,WeatherDisplay:10.37,2013-03-05 15:17:00,
2013-03-05 09:22:00,35.1,26.3,30.08,West,269,11.7,15.0,70,0.00,CLR,,0.05,WeatherDisplay:10.37,2013-03-05 15:22:00,
2013-03-05 09:27:00,35.2,26.0,30.08,WSW,253,12.7,19.6,69,0.00,CLR,,0.05,WeatherDisplay:10.37,2013-03-05 15:27:00,
2013-03-05 09:32:00,35.2,26.0,30.08,NW,313,12.9,23.0,69,0.00,CLR,,0.05,WeatherDisplay:10.37,2013-03-05 15:32:00,
2013-03-05 09:37:00,35.1,26.6,30.08,WNW,292,18.1,25.3,71,0.00,CLR,,0.05,WeatherDisplay:10.37,2013-03-05 15:37:00,
2013-03-05 09:42:00,34.9,27.1,30.09,WNW,302,11.2,19.6,73,0.00,CLR,,0.05,WeatherDisplay:10.37,2013-03-05 15:42:00,
2013-03-05 09:47:00,34.7,26.3,30.09,WNW,290,12.2,20.7,71,0.00,CLR,,0.05,WeatherDisplay:10.37,2013-03-05 15:47:00,
2013-03-05 09:52:00,34.3,26.5,30.09,NW,321,9.8,13.8,73,0.00,CLR,,0.05,WeatherDisplay:10.37,2013-03-05 15:52:00,
2013-03-05 09:57:00,34.4,26.3,30.09,WNW,300,9.6,13.8,72,0.00,CLR,,0.05,WeatherDisplay:10.37,2013-03-05 15:57:00,
2013-03-05 10:02:00,34.0,25.6,30.10,West,276,10.2,18.4,71,0.00,CLR,,0.05,WeatherDisplay:10.37,2013-03-05 16:02:00,
2013-03-05 10:07:00,33.9,24.8,30.10,WNW,288,14.7,23.0,69,0.00,CLR,,0.05,WeatherDisplay:10.37,2013-03-05 16:07:00,
2013-03-05 10:12:00,34.1,24.6,30.10,West,274,12.8,19.6,68,0.00,CLR,,0.05,WeatherDisplay:10.37,2013-03-05 16:12:00,
2013-03-05 10:17:00,34.3,24.5,30.10,West,281,12.0,13.8,67,0.00,CLR,,0.05,WeatherDisplay:10.37,2013-03-05 16:17:00,
2013-03-05 10:22:00,34.3,23.7,30.10,NNW,341,12.0,19.6,65,0.00,CLR,,0.05,WeatherDisplay:10.37,2013-03-05 16:22:00,
2013-03-05 10:27:00,33.9,22.6,30.11,WNW,300,9.5,11.5,63,0.00,CLR,,0.05,WeatherDisplay:10.37,2013-03-05 16:27:00,
2013-03-05 10:32:00,33.9,22.6,30.11,WNW,301,10.6,16.1,63,0.00,CLR,,0.05,WeatherDisplay:10.37,2013-03-05 16:32:00,
2013-03-05 10:37:00,34.3,21.4,30.11,WSW,255,13.2,19.6,59,0.00,CLR,,0.05,WeatherDisplay:10.37,2013-03-05 16:37:00,
2013-03-05 10:42:00,34.4,20.7,30.11,WNW,293,16.4,21.9,57,0.00,CLR,,0.05,WeatherDisplay:10.37,2013-03-05 16:42:00,
2013-03-05 10:47:00,34.5,20.4,30.11,NW,311,15.0,21.9,56,0.00,CLR,,0.05,WeatherDisplay:10.37,2013-03-05 16:47:00,
2013-03-05 10:52:00,34.5,20.0,30.12,NW,307,15.0,29.9,55,0.00,CLR,,0.05,WeatherDisplay:10.37,2013-03-05 16:52:00,
2013-03-05 10:57:00,34.6,20.1,30.12,WNW,297,12.2,19.6,55,0.00,CLR,,0.05,WeatherDisplay:10.37,2013-03-05 16:57:00,
2013-03-05 11:02:00,35.1,21.4,30.12,NW,307,11.6,15.0,57,0.00,CLR,,0.05,WeatherDisplay:10.37,2013-03-05 17:02:00,
2013-03-05 11:07:00,35.3,20.3,30.12,WNW,300,22.2,33.4,54,0.00,CLR,,0.05,WeatherDisplay:10.37,2013-03-05 17:07:00,
2013-03-05 11:12:00,35.3,21.2,30.12,NW,326,10.0,15.0,56,0.00,CLR,,0.05,WeatherDisplay:10.37,2013-03-05 17:12:00,
2013-03-05 11:17:00,35.3,20.7,30.12,NW,304,14.1,18.4,55,0.00,CLR,,0.05,WeatherDisplay:10.37,2013-03-05 17:17:00,
2013-03-05 11:23:00,36.1,21.5,30.13,West,281,12.8,19.6,55,0.00,CLR,,0.05,WeatherDisplay:10.37,2013-03-05 17:23:00,
2013-03-05 11:28:00,36.4,20.9,30.13,WNW,284,12.7,23.0,53,0.00,CLR,,0.05,WeatherDisplay:10.37,2013-03-05 17:28:00,
2013-03-05 11:33:00,35.7,20.7,30.13,WNW,288,13.2,19.6,54,0.00,CLR,,0.05,WeatherDisplay:10.37,2013-03-05 17:33:00,
2013-03-05 11:38:00,35.9,20.9,30.13,West,269,12.8,19.6,54,0.00,CLR,,0.05,WeatherDisplay:10.37,2013-03-05 17:38:00,
2013-03-05 11:43:00,36.2,20.7,30.13,WSW,257,13.1,20.7,53,0.00,CLR,,0.05,WeatherDisplay:10.37,2013-03-05 17:43:00,
2013-03-05 11:48:00,36.6,20.6,30.13,West,278,11.1,15.0,52,0.00,CLR,,0.05,WeatherDisplay:10.37,2013-03-05 17:48:00,
2013-03-05 11:53:00,36.2,21.1,30.13,WNW,288,10.7,19.6,54,0.00,CLR,,0.05,WeatherDisplay:10.37,2013-03-05 17:53:00,
2013-03-05 11:58:00,36.9,22.7,30.13,WNW,301,7.2,11.5,56,0.00,CLR,,0.05,WeatherDisplay:10.37,2013-03-05 17:58:00,
2013-03-05 12:03:00,37.0,22.3,30.13,West,266,11.7,25.0,55,0.00,CLR,,0.05,WeatherDisplay:10.37,2013-03-05 18:03:00,
2013-03-05 12:08:00,36.6,21.9,30.13,NW,321,16.2,21.0,55,0.00,CLR,,0.05,WeatherDisplay:10.37,2013-03-05 18:08:00,
2013-03-05 12:13:00,36.9,21.8,30.13,West,267,11.8,23.0,54,0.00,CLR,,0.05,WeatherDisplay:10.37,2013-03-05 18:13:00,
2013-03-05 12:18:00,37.0,22.7,30.13,NW,305,12.3,19.6,56,0.00,CLR,,0.05,WeatherDisplay:10.37,2013-03-05 18:18:00,
2013-03-05 12:23:00,37.1,21.1,30.12,NNW,342,13.3,19.6,52,0.00,CLR,,0.05,WeatherDisplay:10.37,2013-03-05 18:23:00,
2013-03-05 12:28:00,37.3,20.8,30.13,West,278,11.5,18.4,51,0.00,CLR,,0.05,WeatherDisplay:10.37,2013-03-05 18:28:00,
2013-03-05 12:33:00,37.9,21.4,30.12,WNW,283,14.0,20.7,51,0.00,CLR,,0.05,WeatherDisplay:10.37,2013-03-05 18:33:00,
2013-03-05 12:38:00,37.8,21.3,30.13,WNW,284,9.6,19.6,51,0.00,CLR,,0.05,WeatherDisplay:10.37,2013-03-05 18:38:00,
2013-03-05 12:43:00,38.3,21.3,30.13,NW,309,16.0,26.5,50,0.00,CLR,,0.05,WeatherDisplay:10.37,2013-03-05 18:43:00,
2013-03-05 12:48:00,38.1,21.1,30.13,WNW,298,14.8,21.0,50,0.00,CLR,,0.05,WeatherDisplay:10.37,2013-03-05 18:48:00,
2013-03-05 12:53:00,37.9,22.3,30.13,West,262,8.3,19.6,53,0.00,CLR,,0.05,WeatherDisplay:10.37,2013-03-05 18:53:00,
2013-03-05 12:58:00,38.7,22.1,30.12,WNW,295,8.9,16.1,51,0.00,CLR,,0.05,WeatherDisplay:10.37,2013-03-05 18:58:00,
2013-03-05 13:03:00,38.8,21.7,30.12,WNW,295,12.3,17.3,50,0.00,CLR,,0.05,WeatherDisplay:10.37,2013-03-05 19:03:00,
2013-03-05 13:08:00,39.2,23.0,30.12,WNW,285,8.4,18.4,52,0.00,CLR,,0.05,WeatherDisplay:10.37,2013-03-05 19:08:00,
2013-03-05 13:13:00,39.5,23.3,30.12,NW,312,9.1,20.0,52,0.00,CLR,,0.05,WeatherDisplay:10.37,2013-03-05 19:13:00,
2013-03-05 13:18:00,39.6,22.5,30.12,WNW,290,13.8,19.0,50,0.00,CLR,,0.05,WeatherDisplay:10.37,2013-03-05 19:18:00,
2013-03-05 13:23:00,38.6,21.1,30.12,NNW,333,16.2,18.4,49,0.00,CLR,,0.05,WeatherDisplay:10.37,2013-03-05 19:23:00,
2013-03-05 13:28:00,38.2,21.6,30.12,West,281,11.3,19.6,51,0.00,CLR,,0.05,WeatherDisplay:10.37,2013-03-05 19:28:00,
2013-03-05 13:33:00,38.7,23.5,30.13,WSW,242,9.1,16.1,54,0.00,CLR,,0.05,WeatherDisplay:10.37,2013-03-05 19:33:00,
2013-03-05 13:38:00,38.7,22.6,30.12,WNW,294,10.7,16.1,52,0.00,CLR,,0.05,WeatherDisplay:10.37,2013-03-05 19:38:00,
2013-03-05 13:43:00,38.0,21.5,30.12,WNW,284,20.8,32.2,51,0.00,CLR,,0.05,WeatherDisplay:10.37,2013-03-05 19:43:00,
2013-03-05 13:48:00,38.4,22.3,30.13,NW,305,11.0,23.0,52,0.00,CLR,,0.05,WeatherDisplay:10.37,2013-03-05 19:48:00,
2013-03-05 13:53:00,38.9,22.8,30.13,West,269,17.6,21.9,52,0.00,CLR,,0.05,WeatherDisplay:10.37,2013-03-05 19:53:00,
2013-03-05 13:58:00,38.9,22.8,30.13,WNW,287,17.1,20.7,52,0.00,CLR,,0.05,WeatherDisplay:10.37,2013-03-05 19:58:00,
2013-03-05 14:03:00,38.9,22.8,30.13,WNW,288,11.4,19.6,52,0.00,CLR,,0.05,WeatherDisplay:10.37,2013-03-05 20:03:00,
2013-03-05 14:08:00,39.0,22.8,30.13,NW,307,14.7,24.2,52,0.00,CLR,,0.05,WeatherDisplay:10.37,2013-03-05 20:08:00,
2013-03-05 14:14:00,39.3,23.6,30.13,West,274,17.2,19.6,53,0.00,CLR,,0.05,WeatherDisplay:10.37,2013-03-05 20:14:00,
2013-03-05 14:19:00,39.3,23.6,30.13,WNW,302,13.5,23.0,53,0.00,CLR,,0.05,WeatherDisplay:10.37,2013-03-05 20:19:00,
2013-03-05 14:24:00,39.4,23.2,30.13,WNW,297,17.1,28.8,52,0.00,CLR,,0.05,WeatherDisplay:10.37,2013-03-05 20:24:00,
2013-03-05 14:29:00,39.7,23.5,30.13,WNW,295,8.7,18.4,52,0.00,CLR,,0.05,WeatherDisplay:10.37,2013-03-05 20:29:00,
2013-03-05 14:34:00,39.9,24.1,30.13,West,275,11.4,16.0,53,0.00,CLR,,0.05,WeatherDisplay:10.37,2013-03-05 20:34:00,
2013-03-05 14:39:00,40.5,24.2,30.13,WNW,303,9.4,18.4,52,0.00,CLR,,0.05,WeatherDisplay:10.37,2013-03-05 20:39:00,
2013-03-05 14:44:00,40.6,23.9,30.13,WNW,302,17.0,23.0,51,0.00,CLR,,0.05,WeatherDisplay:10.37,2013-03-05 20:44:00,
2013-03-05 14:49:00,40.5,23.8,30.13,WNW,298,16.3,24.2,51,0.00,CLR,,0.05,WeatherDisplay:10.37,2013-03-05 20:49:00,
2013-03-05 14:54:00,40.2,24.0,30.13,NNW,330,13.6,21.9,52,0.00,CLR,,0.05,WeatherDisplay:10.37,2013-03-05 20:54:00,
2013-03-05 14:59:00,39.8,23.6,30.14,WNW,301,13.7,23.0,52,0.00,CLR,,0.05,WeatherDisplay:10.37,2013-03-05 20:59:00,
2013-03-05 15:04:00,39.9,23.7,30.15,NW,315,16.9,26.5,52,0.00,CLR,,0.05,WeatherDisplay:10.37,2013-03-05 21:04:00,
2013-03-05 15:09:00,40.0,23.8,30.14,WNW,296,13.8,26.5,52,0.00,CLR,,0.05,WeatherDisplay:10.37,2013-03-05 21:09:00,
2013-03-05 15:14:00,40.3,24.1,30.14,NW,316,10.3,19.6,52,0.00,CLR,,0.05,WeatherDisplay:10.37,2013-03-05 21:14:00,
2013-03-05 15:19:00,40.9,24.1,30.14,NW,317,11.0,12.7,51,0.00,CLR,,0.05,WeatherDisplay:10.37,2013-03-05 21:19:00,
2013-03-05 15:24:00,40.7,23.5,30.14,NW,315,15.6,20.7,50,0.00,CLR,,0.05,WeatherDisplay:10.37,2013-03-05 21:24:00,
2013-03-05 15:29:00,40.4,23.2,30.14,WNW,295,15.8,21.9,50,0.00,CLR,,0.05,WeatherDisplay:10.37,2013-03-05 21:29:00,
2013-03-05 15:34:00,40.4,24.1,30.15,West,278,14.5,20.7,52,0.00,CLR,,0.05,WeatherDisplay:10.37,2013-03-05 21:34:00,
2013-03-05 15:39:00,40.4,24.1,30.14,NW,307,10.0,15.0,52,0.00,CLR,,0.05,WeatherDisplay:10.37,2013-03-05 21:39:00,
2013-03-05 15:44:00,40.6,23.9,30.14,NW,307,12.8,21.9,51,0.00,CLR,,0.05,WeatherDisplay:10.37,2013-03-05 21:44:00,
2013-03-05 15:49:00,40.4,24.1,30.15,WNW,293,6.6,11.0,52,0.00,CLR,,0.05,WeatherDisplay:10.37,2013-03-05 21:49:00,
2013-03-05 15:54:00,40.8,24.5,30.15,NW,316,14.2,24.2,52,0.00,CLR,,0.05,WeatherDisplay:10.37,2013-03-05 21:54:00,
2013-03-05 15:59:00,40.7,24.4,30.15,WNW,301,13.3,19.6,52,0.00,CLR,,0.05,WeatherDisplay:10.37,2013-03-05 21:59:00,
2013-03-05 16:04:00,40.7,24.9,30.15,NNW,338,7.7,16.1,53,0.00,CLR,,0.05,WeatherDisplay:10.37,2013-03-05 22:04:00,
2013-03-05 16:09:00,40.9,25.5,30.16,WNW,300,8.4,13.8,54,0.00,CLR,,0.05,WeatherDisplay:10.37,2013-03-05 22:09:00,
2013-03-05 16:14:00,40.9,25.1,30.16,WNW,300,6.9,13.8,53,0.00,CLR,,0.05,WeatherDisplay:10.37,2013-03-05 22:14:00,
2013-03-05 16:19:00,40.9,25.1,30.16,NW,321,14.4,19.6,53,0.00,CLR,,0.05,WeatherDisplay:10.37,2013-03-05 22:19:00,
2013-03-05 16:24:00,40.5,25.1,30.16,WNW,300,15.9,21.9,54,0.00,CLR,,0.05,WeatherDisplay:10.37,2013-03-05 22:24:00,
2013-03-05 16:29:00,40.5,25.1,30.16,NW,312,9.8,15.0,54,0.00,CLR,,0.05,WeatherDisplay:10.37,2013-03-05 22:29:00,
2013-03-05 16:34:00,40.4,25.1,30.16,NW,321,17.6,24.0,54,0.00,CLR,,0.05,WeatherDisplay:10.37,2013-03-05 22:34:00,
2013-03-05 16:39:00,40.2,24.9,30.16,NW,313,13.7,25.3,54,0.00,CLR,,0.05,WeatherDisplay:10.37,2013-03-05 22:39:00,
2013-03-05 16:44:00,40.2,24.9,30.16,West,262,15.6,25.3,54,0.00,CLR,,0.05,WeatherDisplay:10.37,2013-03-05 22:44:00,
2013-03-05 16:49:00,39.8,24.9,30.16,NW,305,14.9,25.3,55,0.00,CLR,,0.05,WeatherDisplay:10.37,2013-03-05 22:49:00,
2013-03-05 16:54:00,39.6,25.2,30.16,NW,319,13.0,23.0,56,0.00,CLR,,0.05,WeatherDisplay:10.37,2013-03-05 22:54:00,
2013-03-05 16:59:00,39.4,25.0,30.16,West,279,8.5,11.5,56,0.00,CLR,,0.05,WeatherDisplay:10.37,2013-03-05 22:59:00,
2013-03-05 17:04:00,39.6,25.2,30.16,WNW,296,16.4,23.0,56,0.00,CLR,,0.05,WeatherDisplay:10.37,2013-03-05 23:04:00,
2013-03-05 17:09:00,39.7,24.8,30.17,NW,305,10.9,23.0,55,0.00,CLR,,0.05,WeatherDisplay:10.37,2013-03-05 23:09:00,
2013-03-05 17:14:00,39.7,25.3,30.17,NW,314,8.1,15.0,56,0.00,CLR,,0.05,WeatherDisplay:10.37,2013-03-05 23:14:00,
2013-03-05 17:19:00,39.3,24.9,30.17,NW,304,8.9,16.1,56,0.00,CLR,,0.05,WeatherDisplay:10.37,2013-03-05 23:19:00,
2013-03-05 17:24:00,38.8,24.9,30.17,WNW,300,11.7,19.6,57,0.00,CLR,,0.05,WeatherDisplay:10.37,2013-03-05 23:24:00,
2013-03-05 17:29:00,38.6,25.1,30.17,WNW,288,10.4,16.1,58,0.00,CLR,,0.05,WeatherDisplay:10.37,2013-03-05 23:29:00,
2013-03-05 17:34:00,38.4,24.5,30.17,WNW,303,12.9,17.3,57,0.00,CLR,,0.05,WeatherDisplay:10.37,2013-03-05 23:34:00,
2013-03-05 17:39:00,38.4,24.9,30.18,West,264,12.2,18.4,58,0.00,CLR,,0.05,WeatherDisplay:10.37,2013-03-05 23:39:00,
2013-03-05 17:44:00,38.3,24.8,30.18,WNW,295,13.8,19.6,58,0.00,CLR,,0.05,WeatherDisplay:10.37,2013-03-05 23:44:00,
2013-03-05 17:49:00,38.1,25.0,30.18,NW,311,8.7,15.0,59,0.00,CLR,,0.05,WeatherDisplay:10.37,2013-03-05 23:49:00,
2013-03-05 17:54:00,37.8,24.7,30.18,WNW,300,8.6,19.6,59,0.00,CLR,,0.05,WeatherDisplay:10.37,2013-03-05 23:54:00,
2013-03-05 17:59:00,37.6,24.6,30.19,WNW,293,6.7,9.2,59,0.00,CLR,,0.05,WeatherDisplay:10.37,2013-03-05 23:59:00,
2013-03-05 18:04:00,37.3,24.3,30.19,WNW,303,9.7,16.1,59,0.00,CLR,,0.05,WeatherDisplay:10.37,2013-03-06 00:04:00,
2013-03-05 18:09:00,37.1,24.5,30.19,NW,307,9.3,12.7,60,0.00,CLR,,0.05,WeatherDisplay:10.37,2013-03-06 00:09:00,
2013-03-05 18:14:00,36.9,24.7,30.20,NW,304,7.5,19.6,61,0.00,CLR,,0.05,WeatherDisplay:10.37,2013-03-06 00:14:00,
2013-03-05 18:19:00,36.7,24.5,30.20,WNW,300,9.7,19.6,61,0.00,CLR,,0.05,WeatherDisplay:10.37,2013-03-06 00:19:00,
2013-03-05 18:24:00,36.6,24.4,30.20,WNW,289,9.1,12.7,61,0.00,CLR,,0.05,WeatherDisplay:10.37,2013-03-06 00:24:00,
2013-03-05 18:29:00,36.4,24.2,30.20,NW,311,15.4,20.0,61,0.00,CLR,,0.05,WeatherDisplay:10.37,2013-03-06 00:29:00,
2013-03-05 18:34:00,36.4,24.6,30.20,NW,307,10.8,17.3,62,0.00,CLR,,0.05,WeatherDisplay:10.37,2013-03-06 00:34:00,
2013-03-05 18:39:00,36.3,24.5,30.21,WNW,283,13.9,16.1,62,0.00,CLR,,0.05,WeatherDisplay:10.37,2013-03-06 00:39:00,
2013-03-05 18:44:00,36.2,24.4,30.21,NW,315,5.7,9.2,62,0.00,CLR,,0.05,WeatherDisplay:10.37,2013-03-06 00:44:00,
2013-03-05 18:49:00,36.0,24.2,30.21,NW,313,11.2,14.0,62,0.00,CLR,,0.05,WeatherDisplay:10.37,2013-03-06 00:49:00,
2013-03-05 18:54:00,36.0,24.2,30.21,WNW,293,5.7,11.5,62,0.00,CLR,,0.05,WeatherDisplay:10.37,2013-03-06 00:54:00,
2013-03-05 18:59:00,36.0,24.2,30.22,NW,307,10.9,16.0,62,0.00,CLR,,0.05,WeatherDisplay:10.37,2013-03-06 00:59:00,
2013-03-05 19:04:00,36.0,24.2,30.22,WNW,287,10.1,14.0,62,0.00,CLR,,0.05,WeatherDisplay:10.37,2013-03-06 01:04:00,
2013-03-05 19:09:00,35.8,24.0,30.21,NW,320,12.5,19.0,62,0.00,CLR,,0.05,WeatherDisplay:10.37,2013-03-06 01:09:00,
2013-03-05 19:14:00,35.7,23.9,30.21,WNW,299,12.0,17.3,62,0.00,CLR,,0.05,WeatherDisplay:10.37,2013-03-06 01:14:00,
2013-03-05 19:19:00,35.5,23.8,30.22,West,274,12.3,12.7,62,0.00,CLR,,0.05,WeatherDisplay:10.37,2013-03-06 01:19:00,
2013-03-05 19:24:00,35.4,23.7,30.22,WNW,289,10.6,18.4,62,0.00,CLR,,0.05,WeatherDisplay:10.37,2013-03-06 01:24:00,
2013-03-05 19:29:00,35.2,23.5,30.22,WNW,300,10.5,19.6,62,0.00,CLR,,0.05,WeatherDisplay:10.37,2013-03-06 01:29:00,
2013-03-05 19:34:00,35.1,23.4,30.22,WNW,288,7.0,20.7,62,0.00,CLR,,0.05,WeatherDisplay:10.37,2013-03-06 01:34:00,
2013-03-05 19:39:00,34.9,23.2,30.22,West,278,11.0,11.5,62,0.00,CLR,,0.05,WeatherDisplay:10.37,2013-03-06 01:39:00,
2013-03-05 19:44:00,34.8,23.1,30.22,WNW,290,7.5,13.8,62,0.00,CLR,,0.05,WeatherDisplay:10.37,2013-03-06 01:44:00,
2013-03-05 19:49:00,34.7,23.4,30.23,NW,305,7.2,9.2,63,0.00,CLR,,0.05,WeatherDisplay:10.37,2013-03-06 01:49:00,
2013-03-05 19:54:00,34.5,23.2,30.23,WNW,296,9.3,18.4,63,0.00,CLR,,0.05,WeatherDisplay:10.37,2013-03-06 01:54:00,
2013-03-05 19:59:00,34.5,23.2,30.23,WNW,296,7.4,14.0,63,0.00,CLR,,0.05,WeatherDisplay:10.37,2013-03-06 01:59:00,
2013-03-05 20:04:00,34.4,23.1,30.23,WNW,285,8.6,11.5,63,0.00,CLR,,0.05,WeatherDisplay:10.37,2013-03-06 02:04:00,
2013-03-05 20:09:00,34.3,23.0,30.24,WNW,298,8.2,10.4,63,0.00,CLR,,0.05,WeatherDisplay:10.37,2013-03-06 02:09:00,
2013-03-05 20:15:00,34.1,22.8,30.24,WNW,296,8.3,12.7,63,0.00,CLR,,0.05,WeatherDisplay:10.37,2013-03-06 02:15:00,
2013-03-05 20:20:00,33.9,23.0,30.24,NW,307,6.2,9.2,64,0.00,CLR,,0.05,WeatherDisplay:10.37,2013-03-06 02:20:00,
2013-03-05 20:25:00,33.8,22.9,30.24,NW,306,8.0,15.0,64,0.00,CLR,,0.05,WeatherDisplay:10.37,2013-03-06 02:25:00,
2013-03-05 20:30:00,33.7,22.8,30.24,WNW,302,8.7,12.7,64,0.00,CLR,,0.05,WeatherDisplay:10.37,2013-03-06 02:30:00,
2013-03-05 20:35:00,33.5,23.0,30.24,WNW,299,5.0,12.0,65,0.00,CLR,,0.05,WeatherDisplay:10.37,2013-03-06 02:35:00,
2013-03-05 20:40:00,33.3,22.8,30.25,WNW,302,6.0,12.0,65,0.00,CLR,,0.05,WeatherDisplay:10.37,2013-03-06 02:40:00,
2013-03-05 20:45:00,33.2,23.1,30.25,NW,306,4.7,10.4,66,0.00,CLR,,0.05,WeatherDisplay:10.37,2013-03-06 02:45:00,
2013-03-05 20:50:00,33.0,22.9,30.25,WNW,287,5.1,10.4,66,0.00,CLR,,0.05,WeatherDisplay:10.37,2013-03-06 02:50:00,
2013-03-05 20:55:00,32.8,23.1,30.25,WNW,300,6.0,12.0,67,0.00,CLR,,0.05,WeatherDisplay:10.37,2013-03-06 02:55:00,
2013-03-05 21:00:00,32.7,22.9,30.25,WNW,301,5.8,9.2,67,0.00,CLR,,0.05,WeatherDisplay:10.37,2013-03-06 03:00:00,
2013-03-05 21:05:00,32.6,22.8,30.25,NW,306,7.0,14.0,67,0.00,CLR,,0.05,WeatherDisplay:10.37,2013-03-06 03:05:00,
2013-03-05 21:10:00,32.5,22.8,30.26,WNW,303,6.0,10.0,67,0.00,CLR,,0.05,WeatherDisplay:10.37,2013-03-06 03:10:00,
2013-03-05 21:15:00,32.3,22.9,30.25,WSW,258,7.1,10.4,68,0.00,CLR,,0.05,WeatherDisplay:10.37,2013-03-06 03:15:00,
2013-03-05 21:20:00,32.3,22.9,30.26,WNW,295,8.1,10.4,68,0.00,CLR,,0.05,WeatherDisplay:10.37,2013-03-06 03:20:00,
2013-03-05 21:25:00,32.3,22.9,30.27,WNW,298,5.0,10.4,68,0.00,CLR,,0.05,WeatherDisplay:10.37,2013-03-06 03:25:00,
2013-03-05 21:30:00,32.1,22.7,30.27,NW,307,5.7,9.2,68,0.00,CLR,,0.05,WeatherDisplay:10.37,2013-03-06 03:30:00,
2013-03-05 21:35:00,32.0,22.6,30.27,WNW,302,6.0,13.0,68,0.00,CLR,,0.05,WeatherDisplay:10.37,2013-03-06 03:35:00,
2013-03-05 21:40:00,31.8,22.4,30.27,NW,306,4.4,8.1,68,0.00,CLR,,0.05,WeatherDisplay:10.37,2013-03-06 03:40:00,
2013-03-05 21:45:00,31.6,22.2,30.27,WNW,301,7.3,8.1,68,0.00,CLR,,0.05,WeatherDisplay:10.37,2013-03-06 03:45:00,
2013-03-05 21:50:00,31.6,22.2,30.28,WNW,302,8.0,13.0,68,0.00,CLR,,0.05,WeatherDisplay:10.37,2013-03-06 03:50:00,
2013-03-05 21:55:00,31.5,22.1,30.28,WNW,296,5.2,9.2,68,0.00,CLR,,0.05,WeatherDisplay:10.37,2013-03-06 03:55:00,
2013-03-05 22:00:00,31.4,22.4,30.28,WNW,296,4.6,10.4,69,0.00,CLR,,0.05,WeatherDisplay:10.37,2013-03-06 04:00:00,
2013-03-05 22:05:00,31.3,22.3,30.28,NW,304,7.0,12.0,69,0.00,CLR,,0.05,WeatherDisplay:10.37,2013-03-06 04:05:00,
2013-03-05 22:10:00,31.2,22.2,30.28,WNW,302,6.0,18.0,69,0.00,CLR,,0.05,WeatherDisplay:10.37,2013-03-06 04:10:00,
2013-03-05 22:15:00,31.2,21.9,30.28,WNW,299,7.0,18.0,68,0.00,CLR,,0.05,WeatherDisplay:10.37,2013-03-06 04:15:00,
2013-03-05 22:20:00,31.1,21.8,30.28,WNW,303,9.0,16.0,68,0.00,CLR,,0.05,WeatherDisplay:10.37,2013-03-06 04:20:00,
2013-03-05 22:25:00,31.0,21.7,30.28,NNW,335,5.8,9.2,68,0.00,CLR,,0.05,WeatherDisplay:10.37,2013-03-06 04:25:00,
2013-03-05 22:30:00,30.9,21.9,30.28,WNW,299,9.0,14.0,69,0.00,CLR,,0.05,WeatherDisplay:10.37,2013-03-06 04:30:00,
2013-03-05 22:35:00,30.7,21.7,30.28,NW,305,7.4,12.0,69,0.00,CLR,,0.05,WeatherDisplay:10.37,2013-03-06 04:35:00,
2013-03-05 22:40:00,30.6,21.6,30.28,WNW,298,7.0,14.0,69,0.00,CLR,,0.05,WeatherDisplay:10.37,2013-03-06 04:40:00,
2013-03-05 22:45:00,30.5,21.9,30.28,NW,307,6.8,11.5,70,0.00,CLR,,0.05,WeatherDisplay:10.37,2013-03-06 04:45:00,
2013-03-05 22:50:00,30.4,21.8,30.28,WNW,302,7.0,11.0,70,0.00,CLR,,0.05,WeatherDisplay:10.37,2013-03-06 04:50:00,
2013-03-05 22:55:00,30.3,21.7,30.28,NW,305,5.9,9.0,70,0.00,CLR,,0.05,WeatherDisplay:10.37,2013-03-06 04:55:00,
2013-03-05 23:00:00,30.3,21.7,30.28,NW,307,8.0,15.0,70,0.00,CLR,,0.05,WeatherDisplay:10.37,2013-03-06 05:00:00,
2013-03-05 23:05:00,30.2,21.6,30.28,NW,305,9.2,12.7,70,0.00,CLR,,0.05,WeatherDisplay:10.37,2013-03-06 05:05:00,
2013-03-05 23:10:00,30.0,21.7,30.28,NW,323,6.2,11.5,71,0.00,CLR,,0.05,WeatherDisplay:10.37,2013-03-06 05:10:00,
2013-03-05 23:15:00,30.0,21.7,30.27,NW,314,9.5,16.1,71,0.00,CLR,,0.05,WeatherDisplay:10.37,2013-03-06 05:15:00,
2013-03-05 23:20:00,30.0,21.7,30.28,NW,316,9.0,11.5,71,0.00,CLR,,0.05,WeatherDisplay:10.37,2013-03-06 05:20:00,
2013-03-05 23:25:00,29.9,21.6,30.28,NNW,336,7.1,9.2,71,0.00,CLR,,0.05,WeatherDisplay:10.37,2013-03-06 05:25:00,
2013-03-05 23:30:00,29.7,21.4,30.28,WNW,295,4.8,11.5,71,0.00,CLR,,0.05,WeatherDisplay:10.37,2013-03-06 05:30:00,
2013-03-05 23:35:00,29.6,21.7,30.28,NW,312,8.8,15.0,72,0.00,CLR,,0.05,WeatherDisplay:10.37,2013-03-06 05:35:00,
2013-03-05 23:40:00,29.7,21.8,30.28,NW,308,7.9,10.4,72,0.00,CLR,,0.05,WeatherDisplay:10.37,2013-03-06 05:40:00,
2013-03-05 23:45:00,29.6,21.7,30.28,NW,307,7.0,11.5,72,0.00,CLR,,0.05,WeatherDisplay:10.37,2013-03-06 05:45:00,
2013-03-05 23:50:00,29.5,21.6,30.28,NW,307,5.3,10.0,72,0.00,CLR,,0.05,WeatherDisplay:10.37,2013-03-06 05:50:00,
2013-03-05 23:55:00,29.4,21.5,30.28,NNW,329,6.2,8.0,72,0.00,CLR,,0.05,WeatherDisplay:10.37,2013-03-06 05:55:00,